Binghamton, NY

8:44 PM EDT on August 17, 2017 (GMT -0400)
Binghamton Regional-Link

Weather History for KBGM - March, 2013

Change the Weather History Date:

Wednesday, March 27, 2013

  Actual Average Record
Temperature  
Mean Temperature 35 °F 37 °F  
Max Temperature 43 °F 45 °F 72 °F (1989)
Min Temperature 27 °F 28 °F 9 °F (1975)
Degree Days  
Heating Degree Days 30 28  
Month to date heating degree days 963 889  
Since 1 July heating degree days 5847 6088  
Cooling Degree Days 0 0  
Month to date cooling degree days 0 0  
Year to date cooling degree days 0 0  
Moisture  
Dew Point 26 °F    
Average Humidity 67    
Maximum Humidity 85    
Minimum Humidity 48    
Precipitation  
Precipitation 0.01 in 0.11 in 0.66 in (1992)
Month to date precipitation 1.57 2.56  
Year to date precipitation 6.12 7.32  
Snow  
Snow 0.20 in 0.30 in 5.00 in (1959)
Month to date snowfall 14.2 13.8  
Since 1 July snowfall 68.0 77.7  
Snow Depth T in    
Sea Level Pressure  
Sea Level Pressure 29.95 in    
Wind  
Wind Speed 9 mph (WNW)    
Max Wind Speed 20 mph    
Max Gust Speed 28 mph    
Visibility 8 miles    
Events Snow    
T = Trace of Precipitation, MM = Missing Value Source: NWS Daily Summary

Daily Weather History Graph

Daily Weather History Graph

Search for Another Location

Airport or City:

Trip Planner

Search our weather history database for the weather conditions in past years. The results will help you decide how hot, cold, wet, or windy it might be!

Date:

Astronomy

Mar. 27, 2013 Rise Set
Actual Time 6:54 AM EDT 7:24 PM EDT
Civil Twilight 6:26 AM EDT 7:52 PM EDT
Nautical Twilight 5:53 AM EDT 8:25 PM EDT
Astronomical Twilight 5:19 AM EDT 8:59 PM EDT
Moon 8:07 PM EDT (3/27) 6:43 AM EDT (3/27)
Length of Visible Light 13h 25m
Length of Day
12h 29m
Full, 100% of the Moon is Illuminated
Mar 27
Full
Apr 3
Last Quarter
Apr 10
New
Apr 18
First Quarter
Apr 25
Full

Hourly Weather History & Observations

Time (EDT) Temp. Windchill Dew Point Humidity Pressure Visibility Wind Dir Wind Speed Gust Speed Precip Events Conditions
12:53 AM 30.9 °F 26.2 °F 19.9 °F 64% 29.91 in 10.0 mi WNW 4.6 mph - N/A   Overcast
1:24 AM 30.2 °F 25.4 °F 23.0 °F 75% 29.87 in 2.5 mi WNW 4.6 mph - 0.00 in Snow Light Snow
1:32 AM 30.2 °F 25.4 °F 23.0 °F 75% 29.87 in 9.0 mi WNW 4.6 mph - 0.00 in Snow Light Snow
1:53 AM 30.0 °F 24.1 °F 21.9 °F 72% 29.91 in 10.0 mi WNW 5.8 mph - 0.00 in   Overcast
2:53 AM 30.0 °F 25.2 °F 23.0 °F 75% 29.90 in 10.0 mi West 4.6 mph - N/A   Overcast
3:53 AM 28.9 °F 21.1 °F 24.1 °F 82% 29.89 in 10.0 mi West 8.1 mph - N/A   Overcast
4:53 AM 28.0 °F 21.7 °F 24.1 °F 85% 29.89 in 10.0 mi West 5.8 mph - N/A   Mostly Cloudy
5:53 AM 28.9 °F 21.1 °F 24.1 °F 82% 29.90 in 10.0 mi West 8.1 mph - N/A   Overcast
6:53 AM 28.9 °F 21.1 °F 24.1 °F 82% 29.91 in 10.0 mi WNW 8.1 mph - N/A   Overcast
7:53 AM 30.0 °F 20.0 °F 24.1 °F 79% 29.91 in 10.0 mi West 12.7 mph - N/A   Scattered Clouds
8:53 AM 32.0 °F 23.0 °F 23.0 °F 69% 29.94 in 10.0 mi West 11.5 mph - N/A   Mostly Cloudy
9:53 AM 34.0 °F 25.5 °F 23.0 °F 64% 29.94 in 10.0 mi NW 11.5 mph - N/A   Overcast
10:53 AM 36.0 °F 28.0 °F 24.1 °F 62% 29.95 in 10.0 mi WNW 11.5 mph - N/A   Scattered Clouds
11:53 AM 39.9 °F 33.4 °F 25.0 °F 55% 29.94 in 10.0 mi West 10.4 mph - N/A   Scattered Clouds
12:53 PM 39.0 °F 33.4 °F 23.0 °F 53% 29.94 in 10.0 mi NNW 8.1 mph - N/A   Overcast
1:53 PM 39.9 °F 34.5 °F 21.0 °F 47% 29.94 in 10.0 mi WNW 8.1 mph 16.1 mph N/A   Overcast
2:53 PM 42.1 °F 34.9 °F 24.1 °F 49% 29.93 in 10.0 mi NNW 13.8 mph 21.9 mph 0.00 in   Partly Cloudy
3:53 PM 37.0 °F 27.4 °F 26.1 °F 65% 29.95 in 5.0 mi NNW 17.3 mph 25.3 mph 0.00 in Snow Light Snow
4:03 PM 35.6 °F 26.2 °F 30.2 °F 81% 29.91 in 2.5 mi North 15.0 mph 27.6 mph 0.00 in Snow Light Snow
4:16 PM 35.6 °F 28.0 °F 30.2 °F 81% 29.90 in 6.0 mi North 10.4 mph - 0.00 in Snow Light Snow
4:53 PM 37.9 °F 30.0 °F 28.0 °F 68% 29.95 in 10.0 mi NNW 12.7 mph 21.9 mph 0.00 in   Mostly Cloudy
5:07 PM 37.4 °F 30.8 °F 28.4 °F 70% 29.91 in 10.0 mi NNW 9.2 mph - N/A   Overcast
5:22 PM 37.4 °F 29.8 °F 28.4 °F 70% 29.91 in 10.0 mi NNW 11.5 mph - N/A   Overcast
5:53 PM 37.0 °F 28.5 °F 27.0 °F 67% 29.97 in 9.0 mi NNW 13.8 mph 20.7 mph 0.00 in Snow Light Snow
6:45 PM 33.8 °F 26.4 °F 28.4 °F 81% 29.95 in 2.5 mi NW 9.2 mph 23.0 mph 0.00 in Snow Light Snow
6:50 PM 32.0 °F 24.8 °F 28.4 °F 87% 29.95 in 2.0 mi WNW 8.1 mph - 0.00 in Snow Light Snow
6:53 PM 32.0 °F 24.8 °F 28.9 °F 88% 30.00 in 2.5 mi WNW 8.1 mph - 0.00 in Snow Light Snow
7:00 PM 32.0 °F 26.4 °F 28.4 °F 87% 29.95 in 9.0 mi NW 5.8 mph - 0.00 in   Overcast
7:29 PM 32.0 °F 25.6 °F 28.4 °F 87% 29.95 in 10.0 mi NW 6.9 mph - 0.00 in   Mostly Cloudy
7:53 PM 32.0 °F 26.4 °F 28.0 °F 85% 30.01 in 10.0 mi NW 5.8 mph - 0.00 in   Scattered Clouds
8:07 PM 32.0 °F 27.5 °F 28.4 °F 87% 29.96 in 10.0 mi NW 4.6 mph - N/A   Mostly Cloudy
8:27 PM 32.0 °F 26.4 °F 28.4 °F 87% 29.97 in 3.0 mi WNW 5.8 mph - 0.00 in Snow Light Snow
8:29 PM 32.0 °F 25.6 °F 28.4 °F 87% 29.97 in 1.8 mi WNW 6.9 mph - 0.00 in Snow Light Snow
8:37 PM 32.0 °F 23.6 °F 28.4 °F 87% 29.97 in 0.8 mi WNW 10.4 mph - 0.01 in Snow Light Snow
8:42 PM 32.0 °F 25.6 °F 30.2 °F 93% 29.97 in 1.2 mi WNW 6.9 mph - 0.01 in Snow Light Snow
8:48 PM 30.2 °F 24.3 °F 30.2 °F 100% 29.97 in 4.0 mi WNW 5.8 mph - 0.01 in Snow Light Snow
8:53 PM 30.9 °F 25.2 °F 28.9 °F 92% 30.02 in 6.0 mi WNW 5.8 mph - 0.01 in Snow Light Snow
9:00 PM 30.2 °F 24.3 °F 28.4 °F 93% 29.97 in 9.0 mi WNW 5.8 mph - N/A   Overcast
9:36 PM 32.0 °F 24.8 °F 28.4 °F 87% 29.98 in 9.0 mi WNW 8.1 mph - 0.00 in   Overcast
9:53 PM 32.0 °F 25.6 °F 28.9 °F 88% 30.02 in 7.0 mi West 6.9 mph - 0.00 in Snow Light Snow
10:02 PM 32.0 °F 24.8 °F 28.4 °F 87% 29.98 in 2.5 mi WNW 8.1 mph - 0.00 in Snow Light Snow
10:15 PM 32.0 °F 24.2 °F 28.4 °F 87% 29.97 in 6.0 mi WNW 9.2 mph - 0.00 in Snow Light Snow
10:53 PM 32.0 °F 27.5 °F 30.0 °F 92% 30.02 in 5.0 mi WNW 4.6 mph - 0.00 in Snow Light Snow
11:53 PM 32.0 °F 27.5 °F 28.9 °F 88% 30.01 in 3.0 mi WNW 4.6 mph - 0.00 in Snow Light Snow